Theta_e
290 291 290 289 289 290 289 290 287 289 289 293 295 296 299 302 301 300 300 301 303 305 305 305 305 305 306 306 307 310 310 313 315 319 319 319 321 323 325 325 327 327 327 326
286 289 288 285 287 288 289 290 290 290 288 296 298 300 300 300 300 299 299 300 303 303 302 302 302 303 303 305 306 307 308 310 314 315 315 318 319 321 323 324 325 325 324 323
281 286 286 283 287 288 288 289 289 286 292 298 298 299 300 300 300 299 299 300 301 300 301 302 302 302 301 303 305 306 307 308 311 314 314 315 317 317 319 323 325 324 323 321
282 284 276 288 296 295 291 293 296 296 298 299 299 300 300 301 300 299 300 300 300 301 301 301 301 301 302 303 303 304 305 306 308 311 312 316 316 315 317 319 320 321 321 321
281 281 285 288 292 292 291 291 297 296 297 298 299 298 297 301 301 300 300 301 301 301 301 301 301 301 301 301 301 302 303 305 306 308 310 313 314 316 317 316 316 317 318 319
282 279 278 288 294 298 297 287 296 296 296 295 296 287 293 301 300 301 302 301 301 301 301 301 301 301 300 299 299 300 302 304 306 307 308 309 312 314 317 316 316 315 315 316
282 281 285 293 296 297 285 288 296 296 296 296 293 296 299 300 300 302 301 301 302 301 300 301 301 300 298 298 297 299 300 301 302 306 307 309 310 313 313 312 312 313 313 316
283 280 280 297 295 289 294 298 297 297 297 296 298 298 299 299 300 300 300 300 300 299 298 299 298 299 297 297 299 300 300 300 302 304 305 306 307 309 310 310 309 310 311 311
289 289 294 297 297 299 298 297 297 296 297 298 296 296 298 297 300 301 300 300 300 298 298 298 297 297 296 297 299 298 299 300 301 301 303 304 305 306 306 308 307 307 307 307
291 293 294 296 297 298 298 297 297 298 298 297 295 296 296 297 298 298 298 299 297 297 295 294 297 297 297 298 297 297 297 298 299 299 299 301 303 304 304 304 305 305 306 306
291 294 295 295 297 297 297 296 295 297 296 296 296 296 297 297 297 297 296 294 297 295 294 294 295 295 296 296 296 295 296 296 297 298 298 298 299 301 303 306 305 305 306 306
289 292 292 294 297 298 296 295 296 296 296 297 298 297 297 294 294 294 295 294 293 293 293 293 293 293 295 296 296 294 294 295 296 297 298 298 298 299 297 297 296 295 295 300
292 294 294 296 298 299 297 296 297 297 297 295 296 296 294 293 292 292 290 290 290 290 291 292 291 292 293 295 295 295 294 295 297 296 298 298 299 300 299 300 295 294 293 294
295 295 293 295 294 298 297 297 297 297 296 296 295 294 293 292 290 289 288 289 290 290 290 290 290 290 292 293 294 294 295 294 295 295 296 297 298 299 299 299 299 300 295 296
294 296 295 297 297 296 296 295 294 294 294 294 294 292 291 287 287 287 289 289 289 289 289 289 290 290 293 293 293 293 293 294 295 295 296 296 296 296 297 298 298 299 301 295
294 295 296 294 294 293 294 294 293 293 293 292 291 291 288 288 287 287 287 288 286 286 287 288 289 291 292 292 292 292 292 291 292 293 294 295 295 296 296 298 298 299 299 301
292 292 293 293 292 293 294 294 293 292 292 291 291 289 287 286 286 285 285 287 287 287 288 289 289 291 292 293 292 292 292 293 291 293 294 294 294 296 297 298 298 299 300 301
296 296 295 294 292 293 293 293 293 293 291 292 290 287 285 284 283 284 284 285 286 287 288 289 289 289 290 290 290 291 291 291 292 293 295 297 299 295 295 299 299 300 301 300
296 294 294 294 295 293 293 292 292 293 292 290 287 284 284 284 284 284 285 285 285 284 286 287 288 289 290 292 291 291 291 292 294 298 305 298 300 299 300 301 301 302 303 300
293 294 294 294 294 293 292 293 293 292 291 289 286 284 283 283 283 283 283 283 284 284 286 287 288 290 293 296 294 295 296 300 307 305 307 307 305 304 303 299 303 304 305 305
292 293 293 293 293 294 293 293 292 291 290 288 285 282 282 282 283 282 281 281 283 285 285 288 289 291 294 294 301 309 312 311 310 310 310 308 310 307 306 307 307 307 309 307
292 292 292 293 293 293 293 293 292 290 288 287 285 283 281 280 281 281 282 281 283 284 286 287 288 287 294 297 309 307 307 305 304 304 304 305 306 306 306 307 308 310 311 310
292 292 293 292 292 292 293 292 291 289 287 286 283 281 280 280 280 278 278 282 283 283 286 285 285 287 290 301 302 302 301 300 300 300 301 301 300 299 298 298 299 299 300 300
292 292 292 293 293 291 290 290 289 288 287 286 285 283 281 279 280 281 282 282 282 283 284 283 284 286 289 294 295 295 296 297 297 297 298 293 296 296 295 295 295 296 296 296
292 292 292 292 290 289 289 290 288 287 286 285 285 284 282 282 280 280 281 281 281 282 283 283 284 285 288 289 290 290 291 291 292 293 293 292 292 292 292 291 292 293 294 293
292 292 292 292 291 290 289 289 287 285 284 283 284 284 283 282 281 280 280 280 281 281 281 281 282 283 285 285 286 287 287 287 289 289 289 289 289 289 289 290 290 291 292 291
292 290 292 291 291 291 289 288 286 284 284 283 282 283 283 283 281 280 279 279 279 279 280 280 281 281 282 283 284 284 285 286 285 286 287 287 287 287 287 287 288 288 289 289
Wind_Speed
16 17 16 18 20 21 23 23 23 21 25 23 20 17 11 8 9 12 14 14 13 10 12 14 14 15 15 14 12 12 12 13 11 12 9 12 11 12 12 12 13 14 14 14
14 13 15 20 24 23 22 22 23 22 26 19 10 5 8 11 12 14 17 15 12 12 14 16 16 15 16 17 16 14 13 14 14 10 8 11 12 14 15 17 14 14 16 16
15 12 10 14 17 18 17 18 14 17 17 4 9 9 11 15 15 18 17 15 15 18 19 16 16 17 17 17 17 16 15 13 13 13 10 10 10 12 14 15 14 16 16 15
8 5 8 2 2 1 7 9 9 13 12 10 10 11 15 18 18 18 17 17 18 18 17 17 17 18 18 18 16 17 17 16 14 12 12 12 9 10 11 11 13 14 15 15
5 6 11 8 4 3 4 6 8 11 11 9 12 16 20 18 16 17 18 18 18 19 19 18 19 19 19 19 19 19 17 16 15 14 13 12 12 10 8 9 10 12 13 16
3 4 5 3 4 2 2 9 4 3 9 15 16 14 17 17 21 23 26 21 20 21 20 20 19 20 22 20 19 19 17 16 16 16 14 14 12 10 8 8 9 9 11 12
9 4 7 2 3 2 5 4 4 10 14 18 18 18 24 22 20 23 22 21 21 22 21 21 17 20 23 20 21 20 20 21 20 17 15 14 13 12 10 9 8 9 10 9
5 6 7 3 2 4 7 9 9 16 18 19 21 23 24 24 24 23 22 22 17 21 20 17 14 17 19 19 18 17 19 20 18 16 14 13 14 13 13 12 12 11 12 11
5 2 2 2 5 9 7 10 16 20 22 20 23 24 26 23 24 24 24 18 21 19 19 16 11 15 20 21 18 19 20 19 16 15 16 17 17 16 13 14 13 13 13 12
3 3 1 7 2 2 12 16 19 19 21 22 22 23 25 22 23 21 20 20 18 18 14 13 18 16 17 18 16 17 16 14 13 12 12 12 12 14 14 14 14 13 14 14
7 7 6 4 8 14 16 14 17 21 22 21 22 22 24 23 24 22 19 19 17 19 17 18 15 15 15 15 14 16 15 14 14 11 13 13 13 13 14 15 15 14 14 14
2 3 5 11 14 18 17 18 19 20 22 22 24 24 25 21 21 21 22 19 16 19 18 17 15 17 17 15 15 15 15 12 11 11 11 11 12 12 22 19 14 16 14 12
2 4 8 15 16 16 17 21 22 20 23 24 24 22 22 23 22 21 21 21 18 16 21 19 18 18 16 16 15 16 14 13 10 12 11 11 11 12 12 12 20 17 17 18
4 7 9 10 16 18 19 20 20 22 21 21 22 20 21 18 21 20 18 20 21 19 19 19 19 18 15 15 14 14 14 18 12 11 11 11 11 11 11 11 11 10 16 18
5 7 9 13 16 18 17 16 20 20 21 20 19 20 17 22 20 19 19 19 18 18 18 18 18 18 15 15 13 13 10 10 11 11 12 13 12 12 11 12 11 10 8 10
8 8 11 15 17 17 18 20 20 20 20 21 20 17 20 19 19 18 16 15 14 14 17 16 17 17 14 13 12 11 12 21 17 12 11 12 12 13 12 12 12 11 10 10
8 12 15 16 15 18 19 18 17 20 20 20 19 21 20 19 18 17 17 15 15 15 15 15 17 13 13 13 12 9 9 9 11 11 11 12 11 13 12 12 11 10 10 10
7 10 12 13 14 17 18 19 17 19 19 19 20 19 19 18 18 18 18 17 15 13 13 13 16 16 15 14 13 9 8 9 9 9 9 11 11 13 12 10 12 9 8 8
10 12 13 12 13 14 16 16 19 18 17 17 17 18 17 16 17 17 17 16 14 16 17 19 23 20 15 12 11 7 8 9 8 7 1 5 9 10 10 10 10 9 8 7
11 12 12 13 13 13 15 16 18 17 16 16 15 18 19 18 17 17 16 14 13 12 20 19 19 13 12 11 9 6 7 7 6 4 5 9 10 12 10 11 11 9 10 10
11 12 12 12 13 13 14 16 17 18 17 16 16 17 18 17 16 16 14 13 20 21 21 21 15 12 8 6 3 4 8 8 9 9 7 7 10 10 10 11 12 11 9 8
9 11 12 12 12 14 15 16 16 17 16 16 15 16 18 16 16 16 13 13 14 23 16 13 14 20 10 10 9 10 10 11 10 9 9 9 9 9 8 8 6 6 6 5
7 10 10 11 12 14 15 16 16 17 17 16 16 16 17 13 12 15 16 21 15 19 12 13 20 21 14 12 12 12 12 11 10 9 9 9 10 10 9 9 9 8 8 8
8 10 9 10 11 12 16 17 16 17 16 16 16 15 14 14 12 11 12 16 22 19 14 18 20 22 17 11 12 12 12 11 11 9 10 12 10 10 10 9 10 9 9 9
8 8 9 11 11 10 13 15 14 15 17 16 17 15 16 12 11 13 12 13 19 17 15 22 24 23 15 13 13 13 12 11 11 10 11 10 10 10 10 10 10 9 9 9
9 7 7 10 10 9 9 10 11 12 13 13 13 13 12 11 12 13 12 16 14 17 14 14 16 14 14 14 14 14 12 12 12 12 11 11 11 11 11 10 10 10 10 9
7 8 7 8 9 10 10 10 12 13 14 13 13 13 13 13 14 15 17 15 14 15 13 14 14 17 14 14 13 13 12 11 15 11 11 10 10 10 9 9 10 10 10 10
Wind_Direction
261 268 275 272 265 262 255 249 253 270 279 285 297 298 283 287 296 308 314 314 312 309 318 324 328 329 329 329 332 322 325 314 283 268 236 241 219 210 211 209 213 194 195 202
262 273 271 276 267 259 254 255 262 270 274 288 299 248 257 281 298 306 310 308 304 308 314 316 317 318 318 316 315 317 308 307 301 284 268 253 245 226 221 217 210 210 200 202
276 289 290 269 260 249 250 248 254 258 277 293 268 275 290 294 303 300 297 298 298 302 306 304 307 309 306 304 302 299 298 293 293 291 278 258 241 230 226 218 208 207 210 206
277 285 248 10 17 341 227 249 237 256 267 285 295 307 298 291 292 284 286 291 298 298 299 297 306 303 299 295 290 286 284 287 283 279 278 263 247 227 221 223 220 215 216 214
224 218 297 271 212 241 242 287 266 276 294 300 303 305 280 287 291 288 292 292 292 293 292 294 302 304 295 290 290 280 270 270 275 277 272 264 258 244 217 207 216 222 222 216
167 241 254 69 137 146 157 273 74 339 297 303 308 291 285 311 307 298 294 290 289 292 285 287 292 298 291 281 284 278 272 274 272 271 268 264 259 240 218 208 205 211 218 217
220 252 284 229 163 141 254 31 296 300 301 296 290 285 297 296 286 286 287 280 281 287 287 286 288 293 287 279 277 276 273 266 262 258 258 256 255 244 226 218 229 218 225 219
214 217 241 145 165 246 349 300 299 307 300 294 290 291 294 295 295 294 286 285 276 279 280 273 271 277 271 273 273 269 270 270 260 254 250 251 244 244 237 233 232 231 229 232
233 275 46 334 294 321 317 302 306 306 303 300 298 296 298 294 287 287 291 281 283 287 274 264 270 269 269 274 268 271 269 261 252 252 256 247 242 242 236 233 233 228 227 226
299 101 357 296 332 345 316 308 308 303 303 301 297 293 291 291 294 296 293 288 303 297 300 283 276 275 265 268 274 272 264 261 260 261 251 245 251 242 236 235 230 230 231 232
270 272 317 181 326 323 314 301 296 303 302 298 295 291 299 299 300 307 304 308 281 289 286 282 282 275 261 264 262 265 261 258 253 246 244 236 234 238 243 239 233 228 229 230
335 20 301 294 306 308 307 308 309 303 303 301 303 301 301 302 301 295 295 300 303 299 285 290 278 282 270 258 257 256 255 249 246 243 236 234 232 232 224 235 221 227 243 243
284 312 290 287 292 304 310 313 309 308 308 309 305 305 308 301 302 324 307 298 296 301 292 285 282 279 282 277 267 255 254 257 253 243 240 237 234 230 230 221 221 218 216 216
225 288 303 311 311 317 316 318 309 306 305 306 309 311 304 310 315 311 308 303 303 299 289 288 288 284 278 272 268 264 258 253 252 249 248 246 241 234 227 226 223 215 221 219
298 309 290 303 313 319 319 311 314 313 317 313 316 314 321 316 312 312 308 307 305 299 292 292 287 285 284 281 273 269 267 259 253 253 245 234 228 228 230 230 227 222 219 194
313 311 324 325 324 324 325 322 322 318 318 319 320 329 323 316 313 313 314 313 308 302 298 294 286 288 291 284 274 264 252 249 248 250 247 239 231 225 222 217 216 213 213 209
338 333 333 326 327 327 326 324 320 317 318 323 331 330 326 324 324 325 323 320 312 302 299 297 292 302 292 280 274 263 263 265 256 258 253 248 236 226 215 209 207 207 202 194
320 320 324 319 323 325 325 326 324 325 326 329 334 328 331 332 332 328 326 324 315 314 315 307 303 300 289 279 272 271 263 261 263 261 260 251 231 190 187 199 188 189 187 175
340 331 330 328 329 327 323 327 328 325 329 338 333 333 332 333 331 328 327 325 330 331 330 322 314 308 295 283 271 267 264 267 264 263 209 72 86 122 152 149 162 165 155 143
350 345 340 336 337 335 330 333 333 332 342 340 338 338 340 340 339 337 334 334 337 325 323 321 319 310 302 299 277 262 269 269 157 155 96 95 103 113 118 129 137 148 153 160
358 349 346 346 338 338 341 342 341 342 344 349 346 344 342 336 340 339 340 348 342 340 335 335 341 334 319 301 310 33 42 47 49 53 88 98 101 114 129 140 147 156 144 159
357 353 349 347 344 341 348 349 350 353 348 351 353 350 348 347 351 350 349 350 333 341 343 353 350 339 344 27 35 38 37 42 46 49 54 62 70 75 77 81 88 114 131 118
354 354 356 355 352 346 350 355 359 0 355 354 359 356 355 351 349 351 351 346 347 344 353 357 353 2 10 30 30 33 37 43 43 45 50 55 57 60 59 62 64 63 69 72
4 3 4 360 2 0 1 358 1 3 3 5 7 360 357 352 354 356 341 338 346 352 4 4 6 14 25 29 34 33 31 34 39 41 49 50 55 59 56 56 65 65 68 75
14 17 15 10 10 6 360 358 3 5 3 7 12 5 6 2 359 343 348 350 356 2 11 8 13 20 24 24 32 31 29 31 28 42 47 50 51 53 54 56 55 55 59 59
20 27 21 18 15 8 4 2 12 11 0 2 9 7 5 3 357 358 358 5 10 12 16 11 16 18 21 22 27 32 32 23 27 34 40 46 49 52 48 48 51 55 59 62
42 20 28 25 23 16 18 16 18 15 16 6 8 6 6 8 6 9 10 8 13 17 18 19 19 20 19 22 25 27 30 35 34 34 36 40 44 49 53 55 56 56 59 59